Regional Weather Roundup
Issued by NWS Upton, NY

Current Version | Previous Version | Graphics & Text | Print | Product List | Glossary Off
Versions: 1 2 3 4 5 6 7 8 9 10 11 12 13 14 15 16 17 18 19 20 21 22 23 24 25 26 27 28

000
ASUS41 KOKX 202108
RWROKX

REGIONAL WEATHER ROUNDUP
NATIONAL WEATHER SERVICE NEW YORK NY
500 PM EDT FRI OCT 20 2017

NOTE: "FAIR" INDICATES FEW OR NO CLOUDS BELOW 12,000 FEET WITH NO
SIGNIFICANT WEATHER AND/OR OBSTRUCTIONS TO VISIBILITY.

NYZ071-072-176-178-NJZ106-104-202200-
NEW YORK CITY METRO AREA

CITY           SKY/WX    TMP DP  RH WIND       PRES   REMARKS
Central Park   SUNNY     72  32  23 W5        30.13R
Bronx Bot Gard   N/A     73  34  23 W2        30.11R
LaGuardia APRT MOSUNNY   73  37  27 NW14      30.09S
Kennedy INTL   MOSUNNY   74  30  19 NW16      30.10S
Breezy Point     N/A     72 N/A N/A NW10G16     N/A
Newark/Liberty MOSUNNY   74  30  19 NW13G24   30.10S
Teterboro      SUNNY     73  34  23 NW15G23   30.09S
$$

NYZ177-179-078>081-202200-
LONG ISLAND NEW YORK

CITY           SKY/WX    TMP DP  RH WIND       PRES   REMARKS
Jones Beach      N/A     72 N/A N/A NW12        N/A
Matinecock PT    N/A     72 N/A N/A W9          N/A
Farmingdale    SUNNY     72  34  24 NW7       30.09S
MacArthur/ISP  MOSUNNY   71  37  28 W10       30.08S
Shirley        SUNNY     72  40  31 W7        30.09R
Mt Sinai Harb    N/A    N/A N/A N/A NW5         N/A
Westhampton    SUNNY     70  36  28 W8        30.09R
East Hampton   FAIR      67  43  42 W6        30.06R
Montauk          N/A     67  51  56 W8        30.06S
$$

NYZ052-065-067-202200-
HUDSON VALLEY

CITY           SKY/WX    TMP DP  RH WIND       PRES   REMARKS
White Plains   SUNNY     72  33  24 NW8       30.09S
Larchmont Harb   N/A     72 N/A N/A W8G15       N/A
Croton On Huds   N/A     73 N/A N/A NW10        N/A
Newburgh       SUNNY     72  37  28 NW12      30.12R
Montgomery     SUNNY     72  36  26 NW9       30.10S
Poughkeepsie   SUNNY     72  36  26 N6        30.10R
Albany         MOSUNNY   69  37  30 W7        30.11S
$$

NJZ001-105-106-008-010-013-015-019>022-104-202200-
NEW JERSEY

CITY           SKY/WX    TMP DP  RH WIND       PRES   REMARKS
Newark/Liberty MOSUNNY   74  30  19 NW13G24   30.10S
Teterboro      SUNNY     73  34  23 NW15G23   30.09S
Caldwell       SUNNY     73  38  27 NW7       30.12S
Somerville     SUNNY     74  34  23 N9        30.11S
Linden         FAIR      74  31  21 N12G20    30.11S
Perth Amboy      N/A     72 N/A N/A NW10        N/A
Sussex         SUNNY     71  35  26 W8        30.14S
Andover          N/A     70  37  29 VRB3      30.15S
Trenton        SUNNY     73  32  22 NW9       30.13S
Millville      SUNNY     74  44  34 NW8       30.15S
Atlantic City  SUNNY     73  41  31 NW9       30.14R
Wrightstown    SUNNY     72  33  24 NW10      30.11S
Toms River       N/A     71  36  27 NW12      30.14R
Belmar         SUNNY     71  37  28 W9        30.13S
$$

PAZ047>061-062-071-202200-
EASTERN PENNSYLVANIA

CITY           SKY/WX    TMP DP  RH WIND       PRES   REMARKS
Philadelphia   MOSUNNY   73  35  25 NW13      30.15F
Allentown      SUNNY     72  34  24 NW10      30.16S
Scranton       SUNNY     69  32  25 NW9       30.19R
$$

CTZ002-004>006-009-010-012-RIZ004-006-007-MAZ004-011-015-202200-
SOUTHERN NEW ENGLAND
 IN CT

CITY           SKY/WX    TMP DP  RH WIND       PRES   REMARKS
Bradley INTL   CLEAR     70  37  29 NW10      30.07S
Hartford       CLEAR     70  38  31 NW10      30.07R
Danbury        SUNNY     71  35  26 NW7       30.11R
Wtrbury/Oxford SUNNY     67  36  31 NW9G17    30.11R
Norwalk Harbor   N/A     72 N/A N/A NW9         N/A
Bridgeport     SUNNY     73  34  23 NW14G20   30.08R
Meriden        SUNNY     69  38  32 NW9G17    30.08R
New Haven      SUNNY     72  36  26 NW12G21   30.08R
Chester        FAIR      70  36  28 NW9G16    30.07S
Groton         CLEAR     70  37  29 NW14      30.05R
Wilimantic     CLEAR     70  34  26 NW14      30.06R

 IN RI

CITY           SKY/WX    TMP DP  RH WIND       PRES   REMARKS
Providence     PTCLDY    70  38  31 NW13      30.04R
Block Island   CLEAR     67  50  54 NW7       30.05R
Westerly       CLEAR     71  37  28 VRB5      30.05R
 IN MA

CITY           SKY/WX    TMP DP  RH WIND       PRES   REMARKS
Boston         CLEAR     70  35  27 NW17G26   30.01R
Worcester      CLEAR     65  30  27 NW12G26   30.05S
Westfield      CLEAR     70  35  27 N13G20    30.07R
Provincetown   CLEAR     63  49  60 W10       30.01R
Nantucket      CLEAR     64  50  60 W12       30.02R
$$

ANZ330-335-338-340-345-350-353-355-202200-
COASTAL MARINE OBSERVATIONS


STATION/POSITION TIME  SKY/WX   TEMP    WIND        PRES    VSBY  WAVE
                                AIR SEA DIR/SP/G                  HT/PER
                 (UTC)          (F)     (DEG/KT/KT) (MB)    (MI)  (FT/S)
NY HARB ENTRANCE 1950            67 65  280/  8/  8 1018.8          2/ 9
20 S FIRE ISLAND 1950            67 64  280/ 14/ 17 1018.9          3/ 9
GREAT SOUTH BAY  2030            68 62  290/  8/ 14   N/A
15 E BARNEGAT LI NOT AVBL
HUDSON CANYON    1950            65 65  310/ 16/ 17 1018.4          4/ 6
KINGS POINT      2030            71 66   10/ 11/ 13 1019.8
EXECUTION ROCKS  2030            77     290/ 10/ 14   N/A
WESTERN LI SOUND 1949            71     290/  8/ 10   N/A           0
CENTRAL LI SOUND NOT AVBL
EASTERN LI SOUND NOT AVBL
ROBBINS REEF     2042            73     300/ 15/ 21 1019.7
$$


>>>>>>>>>>>>>>>>>>>>>>>>>>>> KEY <<<<<<<<<<<<<<<<<<<<<<<<<<<
>                                                          <
>     SKY/WX - Sky Condition/Present Weather               <
>     TMP    - Temperature in Fahrenheit                   <
>     DP     - Dew Point in Fahrenheit                     <
>     RH     - Relative Humidity in Percent                <
>     WIND   - Direction (from) and Speed in MPH           <
>     PRES   - Mean Sea Level Pressure (inches of Hg)      <
>     WCI    - Wind Chill Index                            <
>     VSB    - VISIBILITY IN MILES                         <
>     HX     - HEAT INDEX                                  <
>     TC     - TEMPERATURE IN CELSIUS                      <
>     VRB    - VARIABLE WIND DIRECTION                     <
>                                                          <
>>>>>>>>>>>>>>>>>>>>>>>>>>>> KEY <<<<<<<<<<<<<<<<<<<<<<<<<<<




USA.gov is the U.S. government's official web portal to all federal, state and local government web resources and services.